Flag for Saint Vincent and Grenadines Weather past 2 weeks in Kingstown, Saint Vincent and Grenadines

Now
79 °F

Passing clouds.


Feels Like: 82 °F
Forecast: 78 / 84 °F
Wind: 7 mph from East

Location: Arnos Vale

Current Time: Jan 30, 2015 at 9:46:00 PM

Latest Report: Jan 30, 2015 at 9:00 PM


Visibility: N/A

Pressure: 29.98 "Hg

Humidity: 79%

Dew point: 72 °F

Location of KingstownLocation

Historic Weather in Kingstown — Graph

°F

Kingstown temperature yesterday

Maximum temperature yesterday: 84 °F (at 10:00 AM)
Minimum temperature yesterday: 77 °F (at 6:00 AM)
Average temperature yesterday: 81 °F

Past Weeks' High & Low Weather Summary

 TemperatureHumidityPressure
High86 °F (Jan 16, 11:00 AM)89% (Jan 15, 10:00 PM)30.07 "Hg (Jan 15, 10:00 PM)
Low75 °F (Jan 19, 6:00 AM)55% (Jan 29, 1:00 PM)29.92 "Hg (Jan 20, 3:00 PM)
Average82 °F73%29.99 "Hg
* Reported Jan 15 9:00 PM — Jan 30 9:00 PM, Kingstown, Weather by CustomWeather, © 2014

Note: Actual official high and low records may vary slightly from our data, if they occured in-between our weather recording intervals... More about our weather records

Advertising

Kingstown weather history for previous 24 hours

 ConditionsComfort  
Time TempWeatherWind HumidityBarometerVisibility
9:00 PM
Jan 30
79 °FPassing clouds.7 mph79%29.98 "HgN/A
8:00 PM79 °FPassing clouds.7 mph79%29.98 "HgN/A
7:00 PM81 °FPassing clouds.7 mph74%29.95 "HgN/A
6:00 PM81 °FPassing clouds.7 mph74%29.95 "HgN/A
5:00 PM82 °FPassing clouds.10 mph70%29.95 "HgN/A
4:00 PM84 °FPassing clouds.13 mph66%29.92 "HgN/A
3:00 PM84 °FPassing clouds.13 mph66%29.95 "HgN/A
2:00 PM86 °FPassing clouds.12 mph62%29.95 "HgN/A
1:00 PM86 °FPassing clouds.12 mph62%29.98 "HgN/A
11:00 AM84 °FPassing clouds.14 mph66%30.01 "HgN/A
10:00 AM82 °FScattered clouds.10 mph70%30.01 "HgN/A
9:00 AM82 °FScattered clouds.10 mph70%30.01 "HgN/A
8:00 AM81 °FPassing clouds.9 mph74%29.98 "HgN/A
7:00 AM77 °FScattered clouds.8 mph79%29.95 "HgN/A
6:00 AM77 °FPassing clouds.7 mph79%29.95 "HgN/A
10:00 PM
Jan 29
77 °FPassing clouds.7 mph79%30.01 "HgN/A
9:00 PM77 °FPassing clouds.No wind74%30.01 "HgN/A
Weather by CustomWeather, © 2014

See weather overviewHow to use our weather pages